Location: Az?znagar
(16.8373°N, 80.5091°E)
Time: 16:35:59
(UTC+00:00)

deb Chang Zheng 4 - Pass Details

Date: 30 September 2022
Orbit: 879 x 975 km, 98.9° (Epoch: 30 November)

Event Time Altitude Azimuth Distance (km) Brightness Sun altitude
Exits shadow 14:09:17 38° 156° (SSE) 1,353 ? -25.1°
Maximum altitude 14:11:37 78° 76° (ENE) 921 ? -25.6°
Drops below altitude 10° 14:17:17 10° 351° (N) 2,548 ? -27.0°
Sets 14:19:39 0° 350° (N) 3,480 ? -27.6°
